Syracuse, NY

7:19 PM EST on November 21, 2019 (GMT -0500)
Syracuse Hancock International

Weather History for KSYR - September, 2019

Change the Weather History Date:

Sunday, September 1, 2019

  Actual Average Record
Temperature  
Mean Temperature 62 °F 67 °F  
Max Temperature 72 °F 77 °F 94 °F (1932)
Min Temperature 52 °F 57 °F 42 °F (1967)
Degree Days  
Heating Degree Days 3 1  
Month to date heating degree days 3 1  
Since 1 July heating degree days 8 27  
Cooling Degree Days 0 4  
Month to date cooling degree days 0 4  
Year to date cooling degree days 568 517  
Growing Degree Days 12 (Base 50)    
Moisture  
Dew Point 54 °F    
Average Humidity 76    
Maximum Humidity 96    
Minimum Humidity 53    
Precipitation  
Precipitation 1.00 in 0.12 in 1.28 in (1956)
Month to date precipitation 1.00 0.12  
Year to date precipitation 31.64 24.71  
Snow  
Snow 0.00 in 0.00 in 0.00 in (2002)
Month to date snowfall 0.0 0.0  
Since 1 July snowfall T 0.0  
Since 1 September snowfall 0.0 0.0  
Snow Depth 0.00 in    
Sea Level Pressure  
Sea Level Pressure 30.24 in    
Wind  
Wind Speed 5 mph ()    
Max Wind Speed 14 mph    
Max Gust Speed 20 mph    
Visibility 8.7 miles    
Events Rain , Thunderstorm    
T = Trace of Precipitation, MM = Missing Value Source: Averaged Metar Reports

Daily Weather History Graph

Daily Weather History Graph

Search for Another Location

Airport or City:

Astronomy

Sep. 01, 2019 Rise Set
Actual Time 6:28 AM EDT 7:39 PM EDT
Civil Twilight 5:59 AM EDT 8:08 PM EDT
Nautical Twilight 5:24 AM EDT 8:43 PM EDT
Astronomical Twilight 4:47 AM EDT 9:20 PM EDT
Moon 8:58 AM EDT (9/1) 9:21 PM EDT (9/1)
Length of Visible Light 14h 09m
Length of Day
13h 11m
Waxing Crescent, 8% of the Moon is Illuminated
Sep 1
Waxing Crescent
Sep 5
First Quarter
Sep 14
Full
Sep 21
Last Quarter
Sep 28
New

Hourly Weather History & Observations

Time (EDT) Temp. Dew Point Humidity Pressure Visibility Wind Dir Wind Speed Gust Speed Precip Events Conditions
12:54 AM 54.0 °F 48.0 °F 80% 30.32 in 10.0 mi ESE 3.5 mph - N/A   Mostly Cloudy
1:54 AM 54.0 °F 48.9 °F 83% 30.33 in 10.0 mi SSE 3.5 mph - N/A   Mostly Cloudy
2:54 AM 52.0 °F 48.0 °F 86% 30.32 in 10.0 mi East 5.8 mph - N/A   Mostly Cloudy
3:54 AM 53.1 °F 48.9 °F 86% 30.32 in 10.0 mi SSE 4.6 mph - N/A   Mostly Cloudy
4:54 AM 54.0 °F 48.9 °F 83% 30.32 in 10.0 mi East 3.5 mph - N/A   Mostly Cloudy
5:54 AM 53.1 °F 48.9 °F 86% 30.32 in 10.0 mi ENE 3.5 mph - N/A   Overcast
6:54 AM 54.0 °F 50.0 °F 86% 30.34 in 10.0 mi Calm Calm - N/A   Overcast
7:54 AM 54.0 °F 51.1 °F 90% 30.32 in 10.0 mi East 6.9 mph - N/A   Overcast
8:54 AM 57.9 °F 52.0 °F 81% 30.33 in 10.0 mi Calm Calm - N/A   Mostly Cloudy
9:54 AM 60.1 °F 53.1 °F 78% 30.32 in 10.0 mi East 6.9 mph - N/A   Mostly Cloudy
10:54 AM 64.9 °F 54.0 °F 68% 30.31 in 10.0 mi East 8.1 mph - N/A   Overcast
11:54 AM 66.0 °F 54.0 °F 65% 30.30 in 10.0 mi East 6.9 mph - N/A   Overcast
12:54 PM 69.1 °F 54.0 °F 58% 30.28 in 10.0 mi ESE 8.1 mph - N/A   Overcast
1:54 PM 71.1 °F 55.0 °F 57% 30.26 in 10.0 mi East 6.9 mph - N/A   Overcast
2:54 PM 71.1 °F 54.0 °F 55% 30.23 in 10.0 mi SE 11.5 mph - N/A   Overcast
3:54 PM 71.1 °F 55.9 °F 59% 30.21 in 10.0 mi SSE 8.1 mph - N/A   Overcast
4:54 PM 70.0 °F 55.0 °F 59% 30.19 in 10.0 mi SE 9.2 mph - N/A   Overcast
5:54 PM 70.0 °F 57.0 °F 63% 30.17 in 10.0 mi East 9.2 mph - 0.00 in   Mostly Cloudy
6:54 PM 69.1 °F 57.9 °F 68% 30.15 in 10.0 mi East 8.1 mph - N/A   Overcast
7:54 PM 66.9 °F 57.9 °F 73% 30.14 in 10.0 mi East 6.9 mph - N/A   Overcast
8:54 PM 68.0 °F 57.9 °F 70% 30.13 in 10.0 mi SE 5.8 mph - 0.00 in   Overcast
9:54 PM 64.9 °F 59.0 °F 81% 30.14 in 4.0 mi South 6.9 mph - 0.12 in Rain Rain
10:54 PM 63.0 °F 60.1 °F 90% 30.10 in 8.0 mi NNE 6.9 mph - 0.18 in Rain Light Rain
11:44 PM 63.0 °F 61.0 °F 93% 30.12 in 2.0 mi North 12.7 mph - 0.03 in Rain Heavy Rain
11:46 PM 63.0 °F 61.0 °F 93% 30.12 in 1.8 mi North 10.4 mph - 0.12 in Rain , Thunderstorm Heavy Thunderstorms and Rain
11:54 PM 62.1 °F 61.0 °F 96% 30.11 in 1.2 mi NNW 6.9 mph 19.6 mph 0.31 in Rain , Thunderstorm Heavy Thunderstorms and Rain